Home   Weather   Hamilton   Past weeks
Flag for Canada

Past Weather in Hamilton, Ontario, Canada — Yesterday and Last 2 Weeks

Now
37 °F

Sunny.


Feels Like: 30 °F
Forecast: 39 / 26 °F
Wind: 10 mph from West

Location: Hamilton Airport

Current Time: Mar 25, 2019 at 8:16:41 pm

Latest Report: Mar 25, 2019 at 7:00 pm


Visibility: 15 mi

Pressure: 30.20 "Hg

Humidity: 28%

Dew Point: 7 °F

Location of HamiltonLocation

Past Weather in Hamilton — Graph

°F

Hamilton Temperature Yesterday

Maximum temperature yesterday: 48 °F (at 4:00 pm)
Minimum temperature yesterday: 27 °F (at 12:00 am)
Average temperature yesterday: 37 °F

High & Low Weather Summary for the Past Weeks

 TemperatureHumidityPressure
High54 °F (Mar 15, 12:00 am)100% (Mar 13, 11:00 pm)30.41 "Hg (Mar 13, 11:00 pm)
Low19 °F (Mar 23, 7:00 am)24% (Mar 25, 6:00 pm)29.49 "Hg (Mar 15, 12:00 am)
Average34 °F74%30.08 "Hg
* Reported Mar 10 7:00 pm — Mar 25 7:00 pm, Hamilton. Weather by CustomWeather, © 2019

Note: Actual official high and low records may vary slightly from our data, if they occured in-between our weather recording intervals... More about our weather records

Advertising

Hamilton Weather History for the Previous 24 Hours

Scroll right to see more
 ConditionsComfort  
Time TempWeatherWind HumidityBarometerVisibility
7:00 pm
Mon, Mar 25
37 °FSunny.10 mph28%30.20 "Hg15 mi
6:00 pm39 °FPassing clouds.10 mph24%30.19 "Hg15 mi
5:00 pm39 °FPassing clouds.9 mph36%30.18 "Hg15 mi
4:00 pm39 °FPassing clouds.8 mph39%30.19 "Hg15 mi
3:00 pm37 °FPassing clouds.No wind33%30.22 "Hg15 mi
2:00 pm34 °FPassing clouds.8 mph44%30.23 "Hg15 mi
1:00 pm34 °FPassing clouds.9 mph51%30.25 "Hg15 mi
12:00 pm32 °FPassing clouds.12 mph55%30.26 "Hg15 mi
11:00 am30 °FPassing clouds.15 mph51%30.27 "Hg15 mi
10:00 am30 °FPassing clouds.13 mph51%30.27 "Hg15 mi
9:00 am28 °FPassing clouds.12 mph59%30.25 "Hg15 mi
8:00 am27 °FPassing clouds.16 mph59%30.23 "Hg15 mi
7:00 am25 °FPassing clouds.10 mph69%30.22 "Hg15 mi
6:00 am27 °FPassing clouds.10 mph69%30.21 "Hg15 mi
5:00 am28 °FPassing clouds.13 mph64%30.19 "Hg15 mi
4:00 am30 °FPassing clouds.12 mph64%30.17 "Hg15 mi
3:00 am30 °FPassing clouds.17 mph69%30.16 "Hg15 mi
2:00 am30 °FPassing clouds.16 mph75%30.16 "Hg15 mi
1:00 am30 °FPassing clouds.12 mph86%30.15 "Hg15 mi
12:00 am32 °FPartly cloudy.6 mph87%30.13 "Hg15 mi
11:00 pm
Sun, Mar 24
37 °FPassing clouds.6 mph75%30.11 "Hg15 mi
10:00 pm39 °FPassing clouds.5 mph70%30.10 "Hg15 mi
9:00 pm39 °FPassing clouds.7 mph70%30.09 "Hg15 mi
8:00 pm43 °FPassing clouds.6 mph66%30.06 "Hg15 mi
Weather by CustomWeather, © 2019

See weather overview